KC4KQE Weather Reports


Display with metric or nautical units.
time (UTC)temp
F
wind
direction
speed
MPH
gust
MPH
rain 1hr
in
rain 24hr
in
rain mn
in
humidity
%
barometer
mb
20210225131024 55 0 2.0 3.0 0.00 0.00 0.00 23 1014.7
20210225130528 54 0 0.0 1.0 0.00 0.00 0.00 24 1014.7
20210225130023 54 0 0.0 2.0 0.00 0.00 0.00 25 1014.8
20210225125020 54 0 0.0 2.0 0.00 0.00 0.00 25 1014.7
20210225124512 55 129 0.0 1.0 0.00 0.00 0.00 25 1014.6
20210225124019 55 0 0.0 3.0 0.00 0.00 0.00 25 1014.7
20210225123023 56 0 1.0 4.0 0.00 0.00 0.00 24 1014.6
20210225122547 56 0 0.0 1.0 0.00 0.00 0.00 24 1014.5
20210225121531 56 0 0.0 3.0 0.00 0.00 0.00 25 1014.4
20210225121009 56 0 0.0 3.0 0.00 0.00 0.00 26 1014.4
20210225120504 55 0 0.0 2.0 0.00 0.00 0.00 26 1014.4
20210225115526 55 0 0.0 2.0 0.00 0.00 0.00 26 1014.4
20210225115059 56 135 0.0 4.0 0.00 0.00 0.00 25 1014.3
20210225114554 57 0 3.0 4.0 0.00 0.00 0.00 25 1014.3
20210225113503 58 0 3.0 5.0 0.00 0.00 0.00 24 1014.2
20210225112556 57 0 2.0 3.0 0.00 0.00 0.00 25 1014.2
20210225112011 58 0 1.0 5.0 0.00 0.00 0.00 24 1014.2
20210225111511 58 0 2.0 6.0 0.00 0.00 0.00 24 1014.1
20210225111009 58 0 4.0 7.0 0.00 0.00 0.00 24 1014.1
20210225104514 57 0 0.0 3.0 0.00 0.00 0.00 25 1013.9
20210225104011 57 0 0.0 2.0 0.00 0.00 0.00 25 1013.9
20210225103508 58 0 0.0 3.0 0.00 0.00 0.00 24 1014.0
20210225103114 59 0 2.0 5.0 0.00 0.00 0.00 24 1013.9
20210225102650 58 0 1.0 5.0 0.00 0.00 0.00 24 1014.0
20210225102016 58 0 2.0 5.0 0.00 0.00 0.00 25 1014.0
20210225101009 58 0 2.0 3.0 0.00 0.00 0.00 24 1014.1
20210225100528 58 0 3.0 4.0 0.00 0.00 0.00 24 1014.1
20210225100011 58 0 1.0 4.0 0.00 0.00 0.00 25 1014.2
20210225095511 58 0 2.0 4.0 0.00 0.00 0.00 25 1014.2
20210225094513 57 0 2.0 3.0 0.00 0.00 0.00 26 1014.3
20210225094018 56 0 0.0 3.0 0.00 0.00 0.00 27 1014.3
20210225093511 56 0 1.0 0.0 0.00 0.00 0.00 28 1014.4
20210225093010 55 0 1.0 2.0 0.00 0.00 0.00 29 1014.3
20210225092551 54 142 2.0 3.0 0.00 0.00 0.00 30 1014.4
20210225092018 52 0 1.0 2.0 0.00 0.00 0.00 32 1014.4
20210225091513 50 0 0.0 0.0 0.00 0.00 0.00 36 1014.4
20210225091021 49 0 0.0 0.0 0.00 0.00 0.00 37 1014.4
20210225090511 49 0 0.0 0.0 0.00 0.00 0.00 36 1014.3
20210225090023 49 0 0.0 0.0 0.00 0.00 0.00 36 1014.3
20210225085511 49 0 0.0 0.0 0.00 0.00 0.00 38 1014.2
20210225084519 50 119 0.0 0.0 0.00 0.00 0.00 36 1014.0
20210225084032 51 0 0.0 0.0 0.00 0.00 0.00 35 1014.0
20210225083054 50 0 0.0 0.0 0.00 0.00 0.00 36 1013.9
20210225082021 50 0 0.0 1.0 0.00 0.00 0.00 35 1013.8
20210225081020 51 0 0.0 2.0 0.00 0.00 0.00 33 1013.8
20210225080510 49 0 0.0 0.0 0.00 0.00 0.00 37 1013.8
20210225075511 49 0 0.0 0.0 0.00 0.00 0.00 38 1013.9
20210225075019 49 0 0.0 0.0 0.00 0.00 0.00 38 1013.9
20210225074509 50 0 0.0 0.0 0.00 0.00 0.00 37 1013.9
20210225074011 50 0 0.0 0.0 0.00 0.00 0.00 36 1014.0
20210225073509 50 0 0.0 0.0 0.00 0.00 0.00 36 1014.0
20210225073047 50 0 0.0 0.0 0.00 0.00 0.00 36 1014.0
20210225072629 50 0 0.0 0.0 0.00 0.00 0.00 35 1014.0
20210225072019 50 0 0.0 0.0 0.00 0.00 0.00 36 1014.0
20210225071528 50 233 0.0 0.0 0.00 0.00 0.00 37 1014.0
20210225071011 50 234 0.0 0.0 0.00 0.00 0.00 35 1014.0
20210225070514 51 234 0.0 0.0 0.00 0.00 0.00 35 1014.0
20210225070008 52 234 0.0 0.0 0.00 0.00 0.00 33 1014.0
20210225065510 52 234 0.0 0.0 0.00 0.00 0.00 33 1014.0
20210225065020 52 234 0.0 0.0 0.00 0.00 0.00 33 1014.0
20210225064512 52 234 0.0 0.0 0.00 0.00 0.00 33 1014.1
20210225064030 53 234 0.0 0.0 0.00 0.00 0.00 32 1014.0
20210225063512 53 234 0.0 0.0 0.00 0.00 0.00 31 1014.0
20210225063056 54 233 0.0 0.0 0.00 0.00 0.00 30 1014.1
20210225062705 54 234 0.0 0.0 0.00 0.00 0.00 30 1014.1
20210225061002 55 0 0.0 0.0 0.00 0.00 0.00 29 1014.1
20210225060520 56 0 0.0 0.0 0.00 0.00 0.00 28 1014.1
20210225060021 56 233 0.0 0.0 0.00 0.00 0.00 28 1014.1
20210225055510 56 234 0.0 0.0 0.00 0.00 0.00 29 1014.2
20210225055159 56 232 0.0 0.0 0.00 0.00 0.00 28 1014.2
20210225054520 55 234 0.0 0.0 0.00 0.00 0.00 30 1014.2
20210225054019 53 234 0.0 0.0 0.00 0.00 0.00 31 1014.2
20210225053521 54 234 0.0 0.0 0.00 0.00 0.00 31 1014.2
20210225053019 54 234 0.0 0.0 0.00 0.00 0.00 31 1014.3
20210225052600 55 234 0.0 0.0 0.00 0.00 0.00 30 1014.3
20210225052017 55 234 0.0 0.0 0.00 0.00 0.00 29 1014.3
20210225051520 55 234 0.0 0.0 0.00 0.00 0.00 30 1014.3
20210225051022 55 234 0.0 0.0 0.00 0.00 0.00 30 1014.3
20210225050023 55 0 0.0 0.0 0.00 0.00 0.00 29 1014.2
20210225045520 55 0 0.0 0.0 0.00 0.00 0.00 29 1014.2
20210225045008 55 0 0.0 0.0 0.00 0.00 0.00 30 1014.1
20210225044516 56 230 0.0 0.0 0.00 0.00 0.00 29 1014.1
20210225044019 55 0 0.0 0.0 0.00 0.00 0.00 30 1014.0
20210225043510 56 0 0.0 0.0 0.00 0.00 0.00 29 1013.9
20210225042626 55 231 0.0 0.0 0.00 0.00 0.00 30 1013.8
20210225042022 54 231 0.0 0.0 0.00 0.00 0.00 31 1013.8
20210225041524 55 231 0.0 0.0 0.00 0.00 0.00 30 1013.8
20210225041026 55 230 0.0 0.0 0.00 0.00 0.00 30 1013.7
20210225040010 56 230 0.0 0.0 0.00 0.00 0.00 28 1013.5
20210225035511 57 0 0.0 0.0 0.00 0.00 0.00 28 1013.5
20210225035019 57 0 0.0 0.0 0.00 0.00 0.00 28 1013.5
20210225034521 57 0 0.0 0.0 0.00 0.00 0.00 27 1013.4
20210225034011 57 0 0.0 0.0 0.00 0.00 0.00 27 1013.4
20210225033522 58 0 0.0 0.0 0.00 0.00 0.00 27 1013.3
20210225033220 58 0 0.0 0.0 0.00 0.00 0.00 27 1013.3
20210225032641 58 0 0.0 0.0 0.00 0.00 0.00 26 1013.3
20210225032013 59 0 0.0 0.0 0.00 0.00 0.00 26 1013.2
20210225031511 58 0 0.0 0.0 0.00 0.00 0.00 26 1013.3
20210225031010 58 0 0.0 0.0 0.00 0.00 0.00 26 1013.3
20210225030024 59 231 0.0 0.0 0.00 0.00 0.00 25 1013.2
20210225025023 59 230 0.0 0.0 0.00 0.00 0.00 25 1013.1
20210225024510 61 0 0.0 0.0 0.00 0.00 0.00 24 1013.1
20210225024006 61 0 0.0 0.0 0.00 0.00 0.00 23 1013.1
20210225023520 62 229 0.0 0.0 0.00 0.00 0.00 22 1013.0
20210225023025 62 0 0.0 0.0 0.00 0.00 0.00 23 1013.0
20210225022010 62 0 0.0 0.0 0.00 0.00 0.00 23 1013.0
20210225021022 63 0 0.0 0.0 0.00 0.00 0.00 22 1012.9
20210225020521 64 0 0.0 0.0 0.00 0.00 0.00 21 1012.9
20210225015019 64 231 0.0 0.0 0.00 0.00 0.00 21 1012.9
20210225013510 67 231 0.0 0.0 0.00 0.00 0.00 19 1012.9
20210225013146 68 231 0.0 0.0 0.00 0.00 0.00 18 1012.9
20210225012646 69 231 0.0 0.0 0.00 0.00 0.00 17 1012.9
20210225012007 70 231 0.0 0.0 0.00 0.00 0.00 16 1012.9
20210225011522 71 231 0.0 0.0 0.00 0.00 0.00 16 1012.9
20210225010510 72 0 0.0 3.0 0.00 0.00 0.00 14 1012.9
20210225010027 73 0 2.0 4.0 0.00 0.00 0.00 14 1012.9
20210225005521 73 0 2.0 6.0 0.00 0.00 0.00 14 1012.9
20210225005005 73 0 1.0 4.0 0.00 0.00 0.00 14 1012.9
20210225004524 73 0 0.0 4.0 0.00 0.00 0.00 14 1012.9
20210225004021 73 0 0.0 1.0 0.00 0.00 0.00 14 1013.0
20210225003141 74 0 3.0 6.0 0.00 0.00 0.00 14 1013.0
20210225001012 74 309 0.0 5.0 0.00 0.00 0.00 13 1013.0
20210225000505 74 290 1.0 7.0 0.00 0.00 0.00 13 1013.0
20210225000024 75 0 1.0 9.0 0.00 0.00 0.00 13 1013.0
20210224235501 75 246 2.0 10.0 0.00 0.00 0.00 13 1013.0
20210224235322 75 0 4.0 9.0 0.00 0.00 0.00 13 1013.1
20210224234521 75 0 3.0 9.0 0.00 0.00 0.00 13 1013.1
20210224234020 75 0 9.0 12.0 0.00 0.00 0.00 13 1013.1
20210224232614 75 0 1.0 8.0 0.00 0.00 0.00 13 1013.1
20210224232001 75 0 2.0 9.0 0.00 0.00 0.00 13 1013.2
20210224231522 75 287 1.0 10.0 0.00 0.00 0.00 13 1013.2
20210224231001 76 0 6.0 10.0 0.00 0.00 0.00 13 1013.2
20210224230517 75 0 7.0 9.0 0.00 0.00 0.00 13 1013.2
20210224230001 75 0 3.0 6.0 0.00 0.00 0.00 13 1013.4
20210224225501 74 0 0.0 5.0 0.00 0.00 0.00 13 1013.5
20210224225001 75 0 0.0 8.0 0.00 0.00 0.00 13 1013.6
20210224223501 75 0 10.0 10.0 0.00 0.00 0.00 12 1013.8
20210224222645 75 0 3.0 9.0 0.00 0.00 0.00 13 1013.9
20210224222022 75 0 1.0 7.0 0.00 0.00 0.00 13 1013.9
20210224221011 75 0 3.0 7.0 0.00 0.00 0.00 12 1014.0
20210224220518 75 0 5.0 9.0 0.00 0.00 0.00 13 1014.1
20210224220027 75 0 2.0 8.0 0.00 0.00 0.00 12 1014.1
20210224214504 75 0 3.0 6.0 0.00 0.00 0.00 12 1014.1
20210224214001 75 0 2.0 8.0 0.00 0.00 0.00 12 1014.2
20210224212615 75 0 10.0 12.0 0.00 0.00 0.00 12 1014.2
20210224212021 75 0 9.0 9.0 0.00 0.00 0.00 13 1014.2
20210224211501 74 0 1.0 9.0 0.00 0.00 0.00 13 1014.3
20210224210520 74 0 2.0 7.0 0.00 0.00 0.00 13 1014.5
20210224210011 75 0 4.0 10.0 0.00 0.00 0.00 12 1014.6
20210224205501 75 0 6.0 8.0 0.00 0.00 0.00 12 1014.7
20210224205049 75 184 3.0 5.0 0.00 0.00 0.00 12 1014.7
20210224204512 75 0 0.0 7.0 0.00 0.00 0.00 12 1014.8
20210224204001 75 0 1.0 9.0 0.00 0.00 0.00 13 1014.9
20210224203020 73 0 1.0 5.0 0.00 0.00 0.00 12 1015.0
20210224202551 73 0 1.0 6.0 0.00 0.00 0.00 13 1015.1
20210224202018 74 0 5.0 7.0 0.00 0.00 0.00 13 1015.1
20210224201506 74 0 2.0 6.0 0.00 0.00 0.00 12 1015.3
20210224201022 74 319 3.0 7.0 0.00 0.00 0.00 12 1015.5
20210224200005 74 0 8.0 8.0 0.00 0.00 0.00 12 1015.7
20210224195522 74 0 2.0 13.0 0.00 0.00 0.00 12 1015.7
20210224194509 73 0 2.0 9.0 0.00 0.00 0.00 12 1015.8
20210224194010 73 0 2.0 4.0 0.00 0.00 0.00 12 1015.8
20210224193532 74 198 3.0 8.0 0.00 0.00 0.00 11 1016.0
20210224193023 73 0 4.0 5.0 0.00 0.00 0.00 12 1015.9
20210224192532 73 0 0.0 5.0 0.00 0.00 0.00 12 1016.1
20210224192019 73 0 4.0 10.0 0.00 0.00 0.00 11 1016.2
20210224191505 73 0 0.0 6.0 0.00 0.00 0.00 11 1016.2
20210224191018 73 0 7.0 8.0 0.00 0.00 0.00 12 1016.2
20210224190510 73 0 1.0 7.0 0.00 0.00 0.00 12 1016.3
20210224190011 72 0 3.0 4.0 0.00 0.00 0.00 12 1016.4
20210224185509 72 0 3.0 9.0 0.00 0.00 0.00 12 1016.4
20210224184004 72 193 7.0 7.0 0.00 0.00 0.00 13 1016.6
20210224183521 72 0 0.0 7.0 0.00 0.00 0.00 14 1016.6
20210224182548 71 0 1.0 3.0 0.00 0.00 0.00 14 1016.6
20210224181521 71 0 0.0 6.0 0.00 0.00 0.00 12 1016.8
20210224181015 70 0 6.0 7.0 0.00 0.00 0.00 13 1016.8
20210224180526 70 192 3.0 9.0 0.00 0.00 0.00 14 1016.9
20210224180024 70 194 0.0 6.0 0.00 0.00 0.00 13 1016.9
20210224175518 70 0 4.0 6.0 0.00 0.00 0.00 13 1016.9
20210224175051 70 0 1.0 4.0 0.00 0.00 0.00 13 1016.8
20210224174521 70 0 3.0 6.0 0.00 0.00 0.00 14 1016.8
20210224174010 70 0 0.0 6.0 0.00 0.00 0.00 14 1016.9
20210224173511 69 0 1.0 4.0 0.00 0.00 0.00 15 1016.9
20210224173010 69 0 1.0 6.0 0.00 0.00 0.00 15 1017.0
20210224172511 69 0 2.0 7.0 0.00 0.00 0.00 14 1017.0
20210224172015 69 195 5.0 6.0 0.00 0.00 0.00 13 1017.0
20210224171516 69 0 2.0 5.0 0.00 0.00 0.00 13 1017.1
20210224171011 68 0 0.0 5.0 0.00 0.00 0.00 14 1017.1
20210224170521 68 0 5.0 6.0 0.00 0.00 0.00 13 1017.0
20210224170019 68 0 4.0 6.0 0.00 0.00 0.00 14 1017.0
20210224165056 67 197 5.0 7.0 0.00 0.00 0.00 13 1017.1
20210224163510 67 0 0.0 6.0 0.00 0.00 0.00 15 1017.0
20210224163007 66 0 2.0 5.0 0.00 0.00 0.00 16 1017.0
20210224160518 62 34 0.0 1.0 0.00 0.00 0.00 21 1017.0
20210224154519 58 0 0.0 1.0 0.00 0.00 0.00 25 1016.9
20210224153008 57 0 0.0 2.0 0.00 0.00 0.00 26 1016.8
20210224152523 56 0 0.0 3.0 0.00 0.00 0.00 27 1016.8
20210224152019 56 19 3.0 3.0 0.00 0.00 0.00 26 1016.9
20210224151511 55 16 0.0 2.0 0.00 0.00 0.00 26 1016.9
20210224151024 55 18 0.0 0.0 0.00 0.00 0.00 27 1016.7
20210224150506 55 0 0.0 1.0 0.00 0.00 0.00 27 1016.5
20210224145508 53 13 0.0 0.0 0.00 0.00 0.00 29 1016.3
20210224145143 53 0 0.0 0.0 0.00 0.00 0.00 29 1016.3
20210224144511 51 0 0.0 1.0 0.00 0.00 0.00 29 1016.3
20210224144009 50 0 1.0 6.0 0.00 0.00 0.00 31 1016.2
20210224143501 49 0 5.0 6.0 0.00 0.00 0.00 32 1016.3
20210224143010 47 15 4.0 5.0 0.00 0.00 0.00 35 1016.2
20210224142553 46 15 0.0 0.0 0.00 0.00 0.00 36 1016.0
20210224141514 47 16 0.0 0.0 0.00 0.00 0.00 33 1015.9
20210224141022 47 20 0.0 1.0 0.00 0.00 0.00 34 1015.9
20210224140511 47 19 0.0 0.0 0.00 0.00 0.00 33 1015.9
20210224140010 47 17 0.0 1.0 0.00 0.00 0.00 33 1016.0
20210224134510 45 11 4.0 5.0 0.00 0.00 0.00 37 1015.8
20210224134007 44 0 1.0 2.0 0.00 0.00 0.00 38 1015.7
20210224133514 43 0 0.0 0.0 0.00 0.00 0.00 41 1015.6
20210224133045 43 0 0.0 0.0 0.00 0.00 0.00 41 1015.7
20210224132620 44 0 0.0 0.0 0.00 0.00 0.00 39 1015.7